Location: Lombard
(41.8800°N, 88.0080°W)
Time: 14:06:59
(UTC-05:00)

SPROUT - Visible Passes

Search period start: 16 May 2022 00:00
Search period end: 26 May 2022 00:00
Orbit: 590 x 602 km, 97.9° (Epoch: 16 May)

Date Brightness Start Highest point End Pass type
(mag) Time Alt. Az. Time Alt. Az. Time Alt. Az.
16 May ? 00:44:13 22° ENE 00:44:13 22° ENE 00:47:11 10° NNE visible
16 May ? 02:20:53 24° WNW 02:20:53 24° WNW 02:23:08 10° NNW visible
17 May ? 00:54:14 27° ENE 00:54:14 27° ENE 00:57:23 10° N visible
17 May ? 02:30:54 20° WNW 02:30:54 20° WNW 02:32:51 10° NW visible
18 May ? 01:04:14 34° NE 01:04:14 34° NE 01:07:31 10° N visible
18 May ? 02:40:54 16° WNW 02:40:54 16° WNW 02:42:29 10° NW visible
19 May ? 01:14:13 41° NE 01:14:13 41° NE 01:17:35 10° N visible
19 May ? 02:50:53 13° WNW 02:50:53 13° WNW 02:51:56 10° NW visible
20 May ? 01:24:11 49° NNE 01:24:11 49° NNE 01:27:36 10° N visible
20 May ? 03:00:51 10° WNW 03:00:51 10° WNW 03:01:03 10° WNW visible
21 May ? 01:34:10 55° N 01:34:10 55° N 01:37:33 10° N visible
22 May ? 01:44:07 55° NNW 01:44:07 55° NNW 01:47:29 10° NNW visible
23 May ? 00:17:24 12° ENE 00:18:03 12° ENE 00:19:45 10° NE visible
23 May ? 01:54:04 49° NW 01:54:04 49° NW 01:57:20 10° NNW visible
24 May ? 00:27:20 15° ENE 00:27:49 15° ENE 00:30:17 10° NNE visible
24 May ? 02:04:00 40° WNW 02:04:00 40° WNW 02:07:08 10° NNW visible
25 May ? 00:37:16 19° ENE 00:37:35 19° ENE 00:40:35 10° NNE visible
25 May ? 02:13:56 33° WNW 02:13:56 33° WNW 02:16:52 10° NNW visible
